Regional Weather Roundup
Issued by NWS

Home | Current Version | Previous Version | Graphics & Text | Print | Product List | Glossary On
Versions: 1 2 3 4 5 6 7 8 9 10 11 12 13 14 15 16 17 18 19 20 21 22 23 24 25 26 27 28 29 30 31 32 33 34 35 36 37 38 39 40 41 42 43 44 45 46 47 48 49 50
000
ASUS43 KLMK 231110
RWRKY
KENTUCKY REGIONAL WEATHER ROUNDUP
NATIONAL WEATHER SERVICE LOUISVILLE KY
700 AM EDT SAT SEP 23 2017

NOTE "FAIR" INDICATES FEW OR NO CLOUDS BELOW 12,000 FEET
WITH NO SIGNIFICANT WEATHER AND/OR OBSTRUCTIONS TO VISIBILITY.

KYZ001>023-026-027-061>063-070>075-231200-
WESTERN AND SOUTH CENTRAL KENTUCKY

CITY           SKY/WX    TMP DP  RH WIND       PRES   REMARKS
PADUCAH        CLEAR     65  64  97 CALM      30.02R FOG
HENDERSON      CLEAR     64  64 100 CALM      30.05R FOG
OWENSBORO      CLEAR     69  68  96 NE5       30.05R
HOPKINSVILLE   CLEAR     66  66 100 NE5       30.03R
BOWLING GREEN  CLEAR     67  66  97 CALM      30.05R FOG
GLASGOW        CLEAR    N/A N/A N/A CALM      30.06R HAZE
$$

KYZ024-025-028>034-038-045-046-053-231200-
NORTH CENTRAL KENTUCKY

CITY           SKY/WX    TMP DP  RH WIND       PRES   REMARKS
LOUISVILLE/SDF CLEAR     70  66  87 CALM      30.07R
LOUISVILLE/LOU CLEAR     66  66 100 NE3       30.07R FOG
FORT KNOX      CLEAR     63  63 100 CALM      30.06R
$$

KYZ035>037-039>044-047>052-055>060-089>105-231200-
NORTHEAST KENTUCKY

CITY           SKY/WX    TMP DP  RH WIND       PRES   REMARKS
LEXINGTON      CLEAR     64  61  90 NE3       30.10R FOG
COVINGTON      CLEAR     69  66  90 N3        30.10R
FRANKFORT      CLEAR     64  59  83 CALM      30.08R HAZE
$$

KYZ054-064>069-076>088-106>120-231200-
SOUTHEAST KENTUCKY

CITY           SKY/WX    TMP DP  RH WIND       PRES   REMARKS
JACKSON        CLEAR     66  63  90 E3        30.09R
LONDON         MOCLDY    62  60  93 CALM      30.08R
SOMERSET       CLEAR     61  61 100 CALM      30.09R FOG
MIDDLESBORO    FOG       62  62 100 CALM      30.10S VSB 1/2
MONTICELLO     SUNNY     59  59 100 W8        30.10R FOG
$$





USA.gov is the U.S. government's official web portal to all federal, state and local government web resources and services.